Location: *
(34.8620°S, 39.3380°E)
Time: 04:17:14
(UTC+00:00)

Lacrosse 4 Rocket - Visible Passes

Search period start: 30 November 2021 00:00
Search period end: 10 December 2021 00:00
Orbit: 538 x 619 km, 68.0° (Epoch: 29 November)

Date Brightness Start Highest point End Pass type
(mag) Time Alt. Az. Time Alt. Az. Time Alt. Az.
30 Nov 2.2 19:08:53 10° SSW 19:11:55 48° SW 19:11:55 48° SW visible
01 Dec 3.5 17:36:20 10° SSE 17:38:19 13° SE 17:39:58 11° ESE visible
01 Dec 2.5 19:13:18 10° SW 19:16:16 38° WSW 19:16:16 38° WSW visible
02 Dec 3.0 17:39:43 10° S 17:42:48 20° ESE 17:44:22 17° E visible
02 Dec 3.1 19:17:57 10° SW 19:20:39 25° W 19:20:39 25° W visible
03 Dec 2.4 17:43:32 10° S 17:47:13 32° ESE 17:48:47 24° E visible
03 Dec 3.7 19:23:00 10° WSW 19:25:05 16° W 19:25:05 16° W visible
04 Dec 1.6 17:47:34 10° SSW 17:51:34 53° ESE 17:53:16 30° NE visible
05 Dec 1.2 17:51:47 10° SSW 17:55:52 89° W 17:57:48 30° NNE visible
06 Dec 1.9 17:56:11 10° SW 18:00:08 50° WNW 18:02:23 23° N visible
07 Dec 2.9 18:00:46 10° SW 18:04:19 29° WNW 18:07:02 15° NNW visible
08 Dec 3.7 18:05:43 10° WSW 18:08:28 18° WNW 18:11:12 10° NNW visible
09 Dec 4.2 18:11:54 10° W 18:12:34 10° WNW 18:13:14 10° WNW visible
